Waarnemingen

Advertentie
Mijn weer
Herstmonceux, Groot Brittannië (3882): temperatuur & dauwpunt: 17.10.2018 13:00:00 - 23.10.2018 13:00:00 (BST)Herstmonceux, Groot Brittannië (3882): temperatuur -20cm & temperatuur -100cm: 17.10.2018 13:00:00 - 23.10.2018 13:00:00 (BST)Herstmonceux, Groot Brittannië (3882): windsnelheid: 17.10.2018 13:00:00 - 23.10.2018 13:00:00 (BST)Herstmonceux, Groot Brittannië (3882): windrichting: 17.10.2018 13:00:00 - 23.10.2018 13:00:00 (BST)Herstmonceux, Groot Brittannië (3882): luchtdruk: 17.10.2018 13:00:00 - 23.10.2018 13:00:00 (BST)Herstmonceux, Groot Brittannië (3882): zicht: 17.10.2018 13:00:00 - 23.10.2018 13:00:00 (BST)Herstmonceux, Groot Brittannië (3882): Zonneschijnduur: 17.10.2018 13:00:00 - 23.10.2018 13:00:00 (BST)Herstmonceux, Groot Brittannië (3882): neerslag: 17.10.2018 13:00:00 - 23.10.2018 13:00:00 (BST)
Datum & Tijd tt [°C] td [°C] tt -20cm [°C] tt -100cm [°C] ff [km/u] ff [kn] dd ppp [hPa] vv [km] sd [min] rr [mm]
23.10.2018 13:00:00 12,9 5,5 - - 11 6 WNW 1029,7 30 60 -
23.10.2018 12:00:00 12,1 5,4 - - 15 8 W 1030,1 24 48 0,0
23.10.2018 11:00:00 9,4 5,6 - - 9 5 W 1031,1 28 0 0,0
23.10.2018 10:00:00 7,4 4,7 13,5 14,9 9 5 W 1031,5 21 0 0,0
23.10.2018 09:00:00 6,6 4,3 - - 9 5 W 1031,6 20 0 0,0
23.10.2018 08:00:00 6,3 3,8 - - 9 5 WNW 1032,4 25 0 0,0
23.10.2018 07:00:00 6,0 3,6 - - 9 5 W 1032,6 21 0 0,0
23.10.2018 06:00:00 6,5 3,8 - - 9 5 WNW 1033,4 20 0 0,0
23.10.2018 05:00:00 5,7 3,5 - - 5 3 W 1033,8 17 0 0,0
23.10.2018 04:00:00 5,4 3,3 - - 5 3 WNW 1034,6 17 0 0,0
23.10.2018 03:00:00 5,3 3,1 - - 8 4 WNW 1034,8 16 0 0,0
23.10.2018 02:00:00 5,4 2,8 - - 8 4 WNW 1036,0 16 0 0,0
23.10.2018 01:00:00 6,4 3,0 - - 8 4 NW 1036,7 17 - 0,0
23.10.2018 00:00:00 5,9 3,8 - - 9 5 NW 1037,4 15 0 0,0
22.10.2018 23:00:00 4,5 2,9 - - 4 2 NW 1037,4 16 0 0,0
22.10.2018 22:00:00 6,1 3,3 - - 5 3 NNW 1037,8 19 0 0,0
22.10.2018 21:00:00 6,0 3,0 - - 5 3 N 1037,6 25 0 0,0
22.10.2018 20:00:00 6,6 2,8 - - 5 3 N 1037,9 27 0 0,0
22.10.2018 19:00:00 7,1 3,1 - - 5 3 N 1037,4 21 0 0,0
22.10.2018 18:00:00 9,9 3,5 - - 5 3 N 1037,0 24 30 0,0
22.10.2018 17:00:00 12,6 4,4 - - 5 3 NO 1036,9 30 60 0,0
22.10.2018 16:00:00 13,5 4,9 - - 9 5 NO 1036,6 35 60 0,0
22.10.2018 15:00:00 13,3 4,4 - - 11 6 NO 1036,6 24 60 0,0
22.10.2018 14:00:00 12,8 4,6 - - 15 8 NNO 1036,6 24 60 0,0
22.10.2018 13:00:00 12,5 3,5 - - 15 8 NO 1036,6 40 60 0,0
22.10.2018 12:00:00 11,8 5,2 - - 11 6 NO 1036,3 16 60 0,0
22.10.2018 11:00:00 10,7 4,5 - - 13 7 NO 1036,3 26 60 0,0
22.10.2018 10:00:00 9,4 4,1 14,2 15,0 15 8 NNO 1036,2 24 18 0,0
22.10.2018 09:00:00 7,8 3,7 - - 13 7 NNO 1035,5 27 0 0,0
22.10.2018 08:00:00 7,2 3,0 - - 11 6 NNO 1034,6 24 0 0,0
22.10.2018 07:00:00 8,2 3,5 - - 16 9 NNO 1033,9 30 0 0,0
22.10.2018 06:00:00 10,4 5,6 - - 16 9 NNO 1032,9 26 0 0,0
22.10.2018 05:00:00 11,3 6,6 - - 18 10 NNO 1031,8 30 0 0,0
22.10.2018 04:00:00 11,5 7,4 - - 16 9 NNO 1031,4 40 0 0,0
22.10.2018 03:00:00 11,7 8,6 - - 16 9 NNO 1030,9 40 0 0,0
22.10.2018 02:00:00 12,8 10,0 - - 18 10 NNO 1030,3 30 0 0,0
22.10.2018 01:00:00 14,3 12,2 - - 18 10 NNO 1029,7 30 - 0,0
22.10.2018 00:00:00 14,3 12,6 - - 15 8 NNO 1028,8 24 0 0,0
21.10.2018 23:00:00 11,8 10,3 - - 5 3 NO 1028,3 16 0 0,0
21.10.2018 22:00:00 11,5 10,3 - - 2 1 N 1027,7 7 0 0,0
21.10.2018 21:00:00 12,7 11,9 - - 8 4 NW 1027,5 6 0 0,0
21.10.2018 20:00:00 12,4 11,7 - - 5 3 NW 1027,7 6 0 0,0
21.10.2018 19:00:00 12,7 11,4 - - 5 3 W 1027,4 6 0 0,0
21.10.2018 18:00:00 14,2 11,6 - - 5 3 W 1026,8 11 30 0,0
21.10.2018 17:00:00 17,2 12,5 - - 8 4 WZW 1026,3 18 60 0,0
21.10.2018 16:00:00 19,0 10,4 - - 8 4 W 1026,6 30 60 0,0
21.10.2018 15:00:00 19,5 10,8 - - 5 3 W 1027,1 40 60 0,0
21.10.2018 14:00:00 19,1 12,2 - - 5 3 WZW 1027,3 29 60 0,0
21.10.2018 13:00:00 17,9 11,6 - - 9 5 WNW 1027,8 21 60 0,0
21.10.2018 12:00:00 16,6 11,0 - - 9 5 WNW 1028,4 23 60 0,0
21.10.2018 11:00:00 15,6 12,6 - - 8 4 W 1028,8 11 60 0,0
21.10.2018 10:00:00 13,7 13,2 14,2 15,2 5 3 WNW 1028,9 12 18 0,0
21.10.2018 09:00:00 9,8 9,6 - - 0 0 N 1028,9 5 0 0,0
21.10.2018 08:00:00 8,6 8,2 - - 4 2 NNO 1028,5 3,7 0 0,0
21.10.2018 07:00:00 8,4 7,8 - - 4 2 NNO 1028,5 3,3 0 0,0
21.10.2018 06:00:00 9,1 8,5 - - 2 1 NO 1028,7 4,0 0 0,0
21.10.2018 05:00:00 9,5 8,6 - - 2 1 NNO 1028,9 5 0 0,0
21.10.2018 04:00:00 10,0 9,1 - - 4 2 ZW 1029,1 6 0 0,0
21.10.2018 03:00:00 9,8 9,0 - - 2 1 N 1029,9 5 0 0,0
21.10.2018 02:00:00 9,7 9,4 - - 2 1 NNO 1029,9 3,7 0 0,0
21.10.2018 01:00:00 9,1 8,8 - - 2 1 NNO 1030,5 5 - 0,0
21.10.2018 00:00:00 8,3 7,9 - - 2 1 N 1030,9 5 0 0,0
20.10.2018 23:00:00 8,2 7,5 - - 0 0 N 1031,2 4,8 0 0,0
20.10.2018 22:00:00 8,7 8,1 - - 2 1 WNW 1031,2 5 0 0,0
20.10.2018 21:00:00 8,9 7,9 - - 2 1 ZW 1031,1 6 0 0,0
20.10.2018 20:00:00 10,2 8,3 - - 2 1 NNO 1031,1 6 0 0,0
20.10.2018 19:00:00 11,2 8,7 - - 4 2 W 1031,0 12 0 0,0
20.10.2018 18:00:00 13,3 8,7 - - 4 2 W 1030,9 17 30 0,0
20.10.2018 17:00:00 15,7 9,1 - - 5 3 W 1030,3 24 60 0,0
20.10.2018 16:00:00 16,9 9,2 - - 5 3 W 1030,6 19 60 0,0
20.10.2018 15:00:00 16,6 9,3 - - 8 4 Z 1031,2 24 60 0,0
20.10.2018 14:00:00 16,7 8,4 - - 5 3 W 1031,4 40 60 0,0
20.10.2018 13:00:00 16,3 8,9 - - 8 4 ZW 1032,1 20 60 0,0
20.10.2018 12:00:00 15,3 8,5 - - 5 3 ZZW 1032,5 25 60 0,0
20.10.2018 11:00:00 15,4 9,3 - - 2 1 O 1032,4 20 60 -
20.10.2018 10:00:00 11,4 9,6 14,4 15,2 2 1 ZW 1032,4 30 18 0,0
20.10.2018 09:00:00 7,8 7,2 - - 2 1 N 1032,2 25 0 0,0
20.10.2018 08:00:00 6,2 5,1 - - 5 3 N 1031,8 24 0 0,0
20.10.2018 07:00:00 7,3 6,1 - - 5 3 N 1031,0 35 0 0,0
20.10.2018 06:00:00 6,4 5,7 - - 4 2 N 1030,5 19 0 0,0
20.10.2018 05:00:00 5,6 5,1 - - 0 0 N 1029,8 12 0 0,0
20.10.2018 04:00:00 6,0 5,3 - - 2 1 NW 1029,5 9 0 0,0
20.10.2018 03:00:00 7,3 6,6 - - 5 3 NNO 1029,6 14 0 0,0
20.10.2018 02:00:00 7,8 7,2 - - 5 3 NNO 1029,5 21 0 0,0
20.10.2018 01:00:00 7,5 7,1 - - 4 2 NO 1029,4 8 - 0,0
20.10.2018 00:00:00 8,3 7,9 - - 4 2 NO 1029,2 8 0 0,0
19.10.2018 23:00:00 8,2 7,3 - - 4 2 NO 1028,8 15 0 0,0
19.10.2018 22:00:00 8,2 7,2 - - 4 2 ONO 1028,7 17 0 0,0
19.10.2018 21:00:00 8,6 7,1 - - 4 2 NO 1028,4 21 0 0,0
19.10.2018 20:00:00 9,6 7,7 - - 4 2 NNO 1027,7 35 0 0,0
19.10.2018 19:00:00 10,5 7,6 - - 5 3 NNO 1027,4 29 0 0,0
19.10.2018 18:00:00 13,1 8,3 - - 2 1 NNO 1026,1 12 36 0,0
19.10.2018 17:00:00 15,7 8,6 - - 8 4 NNO 1025,9 24 60 0,0
19.10.2018 16:00:00 16,2 8,8 - - 9 5 NNO 1025,7 25 60 0,0
19.10.2018 15:00:00 15,8 9,0 - - 8 4 N 1025,8 26 36 0,0
19.10.2018 14:00:00 16,4 10,2 - - 5 3 N 1025,6 21 42 0,0
19.10.2018 13:00:00 15,5 9,5 - - 8 4 NO 1025,5 30 48 0,0
19.10.2018 12:00:00 14,9 9,5 - - 8 4 NNO 1026,2 35 42 0,0
19.10.2018 11:00:00 14,1 9,8 - - 8 4 NNO 1026,2 35 60 0,0
19.10.2018 10:00:00 12,4 9,1 15,0 15,4 8 4 NO 1026,0 25 18 0,0
19.10.2018 09:00:00 9,8 8,4 - - 9 5 NNO 1025,8 30 0 0,0
19.10.2018 08:00:00 8,4 7,1 - - 5 3 NO 1025,1 40 0 0,0
19.10.2018 07:00:00 8,7 7,0 - - 9 5 NNO 1025,1 35 0 0,0
19.10.2018 06:00:00 8,6 7,0 - - 9 5 NNO 1025,2 45 0 0,0
19.10.2018 05:00:00 9,0 7,0 - - 8 4 NNO 1025,3 45 0 0,0
19.10.2018 04:00:00 9,5 7,0 - - 8 4 NNO 1025,4 35 0 0,0
19.10.2018 03:00:00 10,1 7,2 - - 8 4 NNO 1025,6 30 0 0,0
19.10.2018 02:00:00 9,5 7,0 - - 11 6 NNO 1025,5 35 0 0,0
19.10.2018 01:00:00 9,2 7,0 - - 9 5 NNO 1025,6 35 - 0,0
19.10.2018 00:00:00 9,0 6,8 - - 9 5 NNO 1025,8 30 0 0,0
18.10.2018 23:00:00 9,3 6,9 - - 8 4 NNO 1026,0 35 0 0,0
18.10.2018 22:00:00 9,6 7,1 - - 8 4 NNO 1026,2 35 0 0,0
18.10.2018 21:00:00 10,8 7,6 - - 8 4 ONO 1026,3 35 0 0,0
18.10.2018 20:00:00 10,8 7,8 - - 5 3 NO 1026,3 35 0 0,0
18.10.2018 19:00:00 11,6 8,4 - - 9 5 ONO 1025,8 35 0 0,0
18.10.2018 18:00:00 12,9 8,7 - - 8 4 NO 1025,6 30 24 0,0
18.10.2018 17:00:00 14,8 9,5 - - 9 5 ONO 1025,3 35 30 0,0
18.10.2018 16:00:00 15,5 9,6 - - 13 7 ONO 1025,2 29 42 0,0
18.10.2018 15:00:00 16,9 10,5 - - 11 6 NO 1025,4 30 48 0,0
18.10.2018 14:00:00 16,2 10,6 - - 9 5 NO 1025,6 30 42 0,0
18.10.2018 13:00:00 16,8 10,9 - - 16 9 O 1025,8 35 60 0,0
18.10.2018 12:00:00 15,8 11,1 - - 13 7 NO 1026,2 30 60 0,0
18.10.2018 11:00:00 14,3 11,1 - - 13 7 NO 1026,2 18 60 0,0
18.10.2018 10:00:00 13,0 10,7 15,7 15,4 15 8 NNO 1025,9 11 24 0,0
18.10.2018 09:00:00 11,5 10,5 - - 11 6 NNO 1025,5 10 0 0,0
18.10.2018 08:00:00 10,8 9,9 - - 9 5 NO 1025,0 8 0 0,0
18.10.2018 07:00:00 11,0 10,1 - - 9 5 NO 1024,8 7 0 0,0
18.10.2018 06:00:00 11,1 9,9 - - 11 6 NNO 1024,5 8 0 0,0
18.10.2018 05:00:00 11,6 9,8 - - 11 6 NNO 1024,4 11 0 0,0
18.10.2018 04:00:00 12,1 10,2 - - 9 5 NNO 1024,0 10 0 0,0
18.10.2018 03:00:00 12,9 11,4 - - 9 5 NO 1023,8 7 0 0,0
18.10.2018 02:00:00 13,1 11,9 - - 9 5 NNO 1023,8 8 0 0,0
18.10.2018 01:00:00 13,3 12,0 - - 8 4 NNO 1024,0 10 - 0,0
18.10.2018 00:00:00 13,6 12,4 - - 8 4 NO 1023,6 10 0 0,0
17.10.2018 23:00:00 13,4 13,0 - - 4 2 ONO 1023,3 9 0 0,0
17.10.2018 22:00:00 13,1 12,9 - - 4 2 NO 1022,9 8 0 0,0
17.10.2018 21:00:00 11,6 11,0 - - 2 1 NO 1022,4 9 0 0,0
17.10.2018 20:00:00 12,4 11,7 - - 5 3 NNO 1021,6 15 0 0,0
17.10.2018 19:00:00 13,1 11,2 - - 2 1 NNO 1021,0 21 0 0,0
17.10.2018 18:00:00 15,0 12,3 - - 5 3 N 1020,0 30 12 0,0
17.10.2018 17:00:00 17,4 12,5 - - 8 4 N 1019,7 25 48 0,0
17.10.2018 16:00:00 17,6 11,4 - - 9 5 NNW 1019,4 45 60 0,0
17.10.2018 15:00:00 19,1 11,4 - - 4 2 WNW 1019,4 35 54 0,0
17.10.2018 14:00:00 17,7 10,3 - - 4 2 NW 1019,3 21 42 0,0
17.10.2018 13:00:00 18,2 8,9 - - 2 1 Z 1019,3 45 54 0,0

tt = temperatuur
td = dauwpunt
tt -20cm = temperatuur -20cm
tt -100cm = temperatuur -100cm
ff = windsnelheid
dd = windrichting
ppp = luchtdruk
vv = zicht
sd = Zonneschijnduur
rr = neerslag

Weerstations in de omgeving